Regional Weather Roundup
Issued by NWS Cleveland, OH

Home | Current Version | Previous Version | Graphics & Text | Print | Product List | Glossary On
Versions: 1 2 3 4 5 6 7 8 9 10 11 12 13 14 15 16 17 18 19 20 21 22 23 24 25 26 27 28 29 30 31 32 33 34 35 36 37 38 39 40 41 42 43 44 45 46 47 48 49 50
000
ASUS41 KCLE 231802
RWRCLE
OHIO REGIONAL WEATHER ROUNDUP
NATIONAL WEATHER SERVICE CLEVELAND, OH
200 PM EDT WED AUG 23 2017

NOTE: "FAIR" INDICATES FEW OR NO CLOUDS BELOW 12,000 FEET WITH NO
SIGNIFICANT WEATHER AND/OR OBSTRUCTIONS TO VISIBILITY.

OHZ001>008-015>018-024>027-034-035-043-044-231900-
   NORTHWEST OHIO

CITY           SKY/WX    TMP DP  RH WIND       PRES   REMARKS
DEFIANCE       PTSUNNY   75  53  46 W9G20     29.99F
FINDLAY        MOSUNNY   76  52  43 W10       29.98F
TOLEDO EXPRESS MOSUNNY   75  54  47 W13       29.97F
TOLEDO EXEC    PTSUNNY   76  52  43 W13       29.98F
LIMA           PTSUNNY   72  54  53 NW9       30.01F
$$

OHZ009>014-019>023-028>033-038-089-231900-
   NORTHEAST OHIO

CITY           SKY/WX    TMP DP  RH WIND       PRES   REMARKS
CLE-HOPKINS    MOSUNNY   72  55  56 NW20      29.98S
CLE-LAKEFRONT  MOSUNNY   74  56  53 W17       29.96S
CUY CO. ARPT   MOSUNNY   73  57  56 W16       29.97S
LORAIN-ELYRIA  MOSUNNY   73  53  49 N9        29.98S
ASHTABULA      MOSUNNY   71  54  54 W14       29.96S
AKRON-CANTON   PTSUNNY   75  49  39 W10G18    29.97F
WOOSTER        MOSUNNY   74  53  48 W10       29.99S
MANSFIELD      MOSUNNY   74  53  48 W12G18    30.00S
YOUNGSTOWN     PTSUNNY   74  55  51 W12       29.96S
$$

OHZ042-051>053-060>062-070>072-077>081-231900-
  SOUTHWEST OHIO

CITY           SKY/WX    TMP DP  RH WIND       PRES   REMARKS
CINC-COVINGTON PTSUNNY   75  55  49 NW8G17    30.04S
CINC-LUNKEN    PTSUNNY   75  52  44 NW6       30.03S
HAMILTON       PTSUNNY   78  57  48 W8        30.04S
DAYTON         MOSUNNY   75  51  43 NW7       30.04S
WRIGHT-PAT AFB NOT AVBL
DAYTON GENERAL MOSUNNY   75  52  44 NW9       30.03S
WILMINGTON     MOSUNNY   75  55  49 NW10      30.03S
$$

OHZ036-037-039>041-045>050-054>059-063>069-073>076-082>088-231900-
  CENTRAL AND SOUTHEAST OHIO

CITY           SKY/WX    TMP DP  RH WIND       PRES   REMARKS
COLUMBUS       MOSUNNY   75  52  44 NW8G21    30.00S
OSU AIRPORT    PTSUNNY   73  55  53 NW6       30.01S
BOLTON FIELD   PTSUNNY   75  55  50 NW7       30.02S
RICKENBACK AFB PTSUNNY   74  52  46 W10       30.00F
NEWARK         PTSUNNY   75  50  41 NW7       30.00F
MARION         MOSUNNY   75  50  41 NW13      30.01S
LANCASTER      PTSUNNY   76  54  46 W9        30.01F
ZANESVILLE     SUNNY     76  52  43 W6        30.00F
NEW PHILLY     NOT AVBL
$$




USA.gov is the U.S. government's official web portal to all federal, state and local government web resources and services.